Powrót do katalogu

STARLINK-5882

AktywnyŁącznośćVLEO
NORAD 55936·PAYLOAD·🇺🇸 United States

Wystrzelony Mar 17, 2023 z Vandenberg Space Force Base

Loading…

Następne Przeloty (najbliższe 24 godziny)

TLE

ŚwieżeSource: CelesTrak SupGP

Epoka: Sep 14, 2026, 21:27 UTC

1 55936C 23037Y   26257.89423611 -.00035485  00000+0 -29738-2 0  2573
2 55936  70.0010 147.2412 0002753 270.3711 256.1424 14.98349468    18

Śledź STARLINK-5882 w czasie rzeczywistym z AllMySat

Download on the App Store